Port Said Airport, Egypt

21:04 EET 22. Květen 2015 (GMT +0200)
Port Said | | Change Station
CLOSE
Current Station
Letiště
Location: Port Said Airport,
Nadmořská výška: 7 ft
Poblíž povětrnostní stanice

Výška 7 ft 31.28 °N, 32.24 °E | Updated 1 hour ago

Clear
Jasno
73 °F
Pocit jako 73 °F
S
12
Vítr proměnlivý Vítr od SSZ

Dnes
Vysoké -- | Nízké -- °F
--% Možnost srážek
Včera
Vysoké -- | Nízké -- °F
Precip. -- inčů
4:51 AM 6:43 PM
Dorůstající srpek, 23% visible
Tlak 29.95 inčů
Viditelnost -9999.0 mílí
Zataženo
Rosný bod 64 °F
Vlhkost 73%
Dešťové srážky 0.00 inčů
Sněhová pokrývka Není k dispozici
UV záření Není k dispozici
Pyl Není k dispozici
Kvalita ovzduší Není k dispozici
Flu Activity Není k dispozici
METAR HEPS 221800Z 33010KT CAVOK 23/18 Q1014 NOSIG

More Conditions Fewer Conditions

Tlak 29.95 inčů
Viditelnost -9999.0 mílí
Zataženo
Rosný bod 64 °F
Vlhkost 73%
Dešťové srážky 0.00 inčů
Sněhová pokrývka Není k dispozici
UV záření Není k dispozici
Pyl Není k dispozici
Kvalita ovzduší Není k dispozici
Flu Activity Není k dispozici
METAR HEPS 221800Z 33010KT CAVOK 23/18 Q1014 NOSIG

More Conditions Fewer Conditions

10-Day Weather Forecast

Almanac

Astronomie

May. 22, 2015 Východ Západ
Skutečný čas
Občanský soumrak
Námořní soumrak
Astronomický soumrak
Měsíc
Délka denního světla
Délka dne
Tomorrow will be .
, % of the Moon is Illuminated

Dnešní extrémy

Nejvyšší hodnoty ve státě Nejnižší hodnoty ve státě

Community

WunderPhotos

Upload Photos

1,823,278 snímků staženo!

WunderBlogs® & News

Nearby

Kvalita ovzduší

  Kvalita ovzduší Index kvality ovzduší Polutant
Not available.

Výška sněhu

Station Hloubka Nadmořská výška

Seizmická činnost

Město Distance Mag. Čas & datum
Minimální zobrazený rozsah je 2.5.

Pobřežní teplota vody

Lokalita Teplota

Stations

Poblíž povětrnostní stanice

Lokace stanice Tepl. Ochlazování větrem Rosný bod Vlhkost Vítr Precip. Výška Čas hlášení Typ